Find Starlink 2504

NORAD ID: 48328 Int'l Des: 2021-036 Owner: SPXS Country: US Constellation: starlink operational
LEOCIRCULARSTARLINK_TYPE

現在のビュー

3D地球を読み込み中...

About Starlink 2504

Starlink 2504 (NORAD 48328) is a starlink constellation satellite (v1.0) launched Apr 29, 2021 by SPXS of US. It operates in LEO, CIRCULAR, STARLINK_TYPE orbit with a mass of 260.00 kg.

Starlink 2504について

説明を読み込み中...

次回通過

Passes for default location (London). Set your location on the main map for personalized predictions.

高度履歴

Loading altitude history...

軌道要素

1 48328U 21036BE 26170.77458216 .00001023 00000-0 44696-4 0 9992
2 48328 53.1603 346.0736 0000846 100.6560 259.4536 15.31709274283679
Epoch: Jun 19, 2026 • Age: 12 hours

現在のステータス

高度 474.1 km
速度 7.63 km/s
衛星直下点 -12.41°S, 168.71°E
打ち上げ日 Apr 29, 2021
運用期間 5.1 years
タイプ internet

技術仕様

分類 Payload
質量 260.00 kg
乾燥質量 248.00 kg
総質量 260.00 kg
長さ 0.20 m
直径 2.80 m
スパン 9.00 m
形状 Box + pan
製造者 SPXS
バスタイプ Starlink
フェーズステータス In Orbit
所有者/国 SPXS/US

Most Searched